{"data":{"norad_id":57219,"intl_designator":"2023-094B","name":"STARLINK-5520","alt_names":[],"object_type":"PAYLOAD","status":"ACTIVE","operator":null,"country":"US","launch_date":"2023-07-07","launch_site_code":"AFWTR","launch_vehicle":null,"mission":null,"orbit_class":"UNKNOWN","rcs_meters":null,"size_class":null,"mass_kg":null,"dimensions":null,"purposes":["comms"],"wikipedia_slug":null,"has_3d_model":false,"image_url":null,"decayed_at":null,"tle_current":{"epoch":"2026-05-24T18:45:42.974496Z","epoch_age_seconds":87294,"freshness":"FRESH","line1":"1 57219U 23094B   26144.78174739 -.00000034  00000+0  82749-5 0  9997","line2":"2 57219  43.0026 324.3255 0001320 270.1915  89.8786 15.27588827158717","mean_motion":15.27588827,"eccentricity":0.000132,"inclination_deg":43.0026,"raan_deg":324.3255,"arg_perigee_deg":270.1915,"mean_anomaly_deg":89.8786,"bstar":8.2749e-6,"rev_number":15871,"period_min":94.266204003861,"perigee_km":482.11699187766,"apogee_km":483.92833802921,"semimajor_km":6861.1596649534,"source":"CELESTRAK","updated_at":"2026-05-25T13:38:18.251640Z"}}}